Location: Hylvaty SDH
(49.9612°N, 16.4057°E)
Time: 12:41:45
(UTC+01:00)

A-11 Canister half - Pass Details

Date: 10 October 2020
Orbit: 1526 x 1683 km, 47.3° (Epoch: 28 October)

Event Time Altitude Azimuth Distance (km) Brightness Sun altitude
Rises 18:39:26 0° 195° (SSW) 4,694 11.8 -5.1°
Reaches altitude 10° 18:43:14 10° 182° (S) 3,699 11.1 -5.7°
Maximum altitude 18:50:09 24° 133° (SE) 2,747 10.0 -6.8°
Drops below altitude 10° 18:57:02 10° 84° (E) 3,699 10.3 -7.9°
Enters shadow 18:57:28 - 83° (E) 3,800 10.4 -8.0°
Sets 19:00:49 0° 72° (ENE) 4,693 - -8.5°
